| time (UTC) | temp C | wind direction | speed KPH | gust KPH | rain 1hr cm | rain 24hr cm | rain mn cm | humidity % | barometer mb |
| 20260504050002 | 17 | 354 | 0.0 | 0.0 | 0.00 | 0.00 | 0.00 | 77 | 1019.5 |
| 20260504044504 | 17 | 264 | 0.0 | 0.0 | 0.00 | 0.00 | 0.00 | 76 | 1019.5 |
| 20260504043106 | 17 | 339 | 0.0 | 0.0 | 0.00 | 0.00 | 0.00 | 74 | 1019.5 |
| 20260504041600 | 17 | 1 | 0.0 | 0.0 | 0.00 | 0.00 | 0.00 | 74 | 1019.5 |
| 20260504040105 | 17 | 3 | 0.0 | 0.0 | 0.00 | 0.00 | 0.00 | 72 | 1019.3 |
| 20260504034616 | 18 | 13 | 0.0 | 1.6 | 0.00 | 0.00 | 0.00 | 72 | 1019.3 |
| 20260504033104 | 18 | 13 | 0.0 | 6.4 | 0.00 | 0.00 | 0.00 | 71 | 1019.3 |
| 20260504031604 | 18 | 354 | 0.0 | 3.2 | 0.00 | 0.00 | 0.00 | 71 | 1019.3 |
| 20260504030058 | 18 | 1 | 0.0 | 3.2 | 0.00 | 0.00 | 0.00 | 68 | 1019.4 |
| 20260504024558 | 19 | 4 | 1.6 | 11.3 | 0.00 | 0.00 | 0.00 | 67 | 1019.5 |
| 20260504023056 | 19 | 9 | 3.2 | 9.7 | 0.00 | 0.00 | 0.00 | 66 | 1019.3 |
| 20260504021557 | 19 | 342 | 0.0 | 4.8 | 0.00 | 0.00 | 0.00 | 66 | 1019.1 |
| 20260504020105 | 19 | 296 | 0.0 | 11.3 | 0.00 | 0.00 | 0.00 | 66 | 1019.0 |
| 20260504014557 | 18 | 23 | 1.6 | 3.2 | 0.00 | 0.00 | 0.00 | 69 | 1018.8 |
| 20260504013058 | 19 | 249 | 0.0 | 0.0 | 0.00 | 0.00 | 0.00 | 69 | 1018.5 |
| 20260504011554 | 20 | 248 | 0.0 | 3.2 | 0.00 | 0.00 | 0.00 | 62 | 1018.3 |
| 20260504010053 | 21 | 254 | 0.0 | 3.2 | 0.00 | 0.00 | 0.00 | 61 | 1018.2 |
| 20260504004553 | 20 | 244 | 3.2 | 12.9 | 0.00 | 0.00 | 0.00 | 63 | 1018.1 |
| 20260504003051 | 21 | 247 | 1.6 | 11.3 | 0.00 | 0.00 | 0.00 | 63 | 1018.1 |
| 20260504001556 | 21 | 238 | 3.2 | 9.7 | 0.00 | 0.00 | 0.00 | 62 | 1018.0 |
| 20260504000053 | 21 | 269 | 6.4 | 12.9 | 0.00 | 0.00 | 0.00 | 60 | 1017.9 |
| 20260503234549 | 22 | 207 | 6.4 | 14.5 | 0.00 | 0.00 | 0.00 | 58 | 1018.0 |
| 20260503233049 | 22 | 188 | 4.8 | 14.5 | 0.00 | 0.00 | 0.00 | 55 | 1018.1 |
| 20260503231548 | 22 | 262 | 1.6 | 9.7 | 0.00 | 0.00 | 0.00 | 55 | 1018.0 |
| 20260503224547 | 22 | 224 | 8.0 | 16.1 | 0.00 | 0.00 | 0.00 | 52 | 1018.0 |
| 20260503223046 | 22 | 207 | 4.8 | 16.1 | 0.00 | 0.00 | 0.00 | 51 | 1018.1 |
| 20260503221545 | 23 | 226 | 6.4 | 16.1 | 0.00 | 0.00 | 0.00 | 48 | 1018.0 |
| 20260503220045 | 22 | 178 | 9.7 | 17.7 | 0.00 | 0.00 | 0.00 | 44 | 1018.1 |
| 20260503214544 | 22 | 219 | 8.0 | 16.1 | 0.00 | 0.00 | 0.00 | 42 | 1018.3 |
| 20260503213041 | 22 | 188 | 4.8 | 22.5 | 0.00 | 0.00 | 0.00 | 41 | 1018.4 |
| 20260503211553 | 22 | 197 | 4.8 | 17.7 | 0.00 | 0.00 | 0.00 | 43 | 1018.6 |
| 20260503210037 | 22 | 248 | 6.4 | 19.3 | 0.00 | 0.00 | 0.00 | 47 | 1018.8 |
| 20260503204537 | 22 | 244 | 8.0 | 16.1 | 0.00 | 0.00 | 0.00 | 46 | 1018.9 |
| 20260503203043 | 22 | 212 | 6.4 | 19.3 | 0.00 | 0.00 | 0.00 | 48 | 1019.0 |
| 20260503201534 | 22 | 250 | 9.7 | 24.1 | 0.00 | 0.00 | 0.00 | 42 | 1019.2 |
| 20260503200046 | 23 | 199 | 12.9 | 19.3 | 0.00 | 0.00 | 0.00 | 42 | 1019.3 |
| 20260503194532 | 24 | 230 | 11.3 | 19.3 | 0.00 | 0.00 | 0.00 | 41 | 1019.5 |
| 20260503193035 | 25 | 25 | 1.6 | 14.5 | 0.00 | 0.00 | 0.00 | 35 | 1020.0 |
| 20260503191531 | 24 | 2 | 0.0 | 6.4 | 0.00 | 0.00 | 0.00 | 33 | 1020.1 |
| 20260503190032 | 23 | 343 | 9.7 | 19.3 | 0.00 | 0.00 | 0.00 | 31 | 1020.5 |
| 20260503184535 | 23 | 136 | 3.2 | 11.3 | 0.00 | 0.00 | 0.00 | 36 | 1020.6 |
| 20260503183025 | 24 | 44 | 3.2 | 9.7 | 0.00 | 0.00 | 0.00 | 36 | 1020.8 |
| 20260503181522 | 23 | 41 | 0.0 | 6.4 | 0.00 | 0.00 | 0.00 | 35 | 1021.0 |
| 20260503180038 | 23 | 4 | 4.8 | 12.9 | 0.00 | 0.00 | 0.00 | 34 | 1021.2 |
| 20260503174524 | 23 | 45 | 3.2 | 16.1 | 0.00 | 0.00 | 0.00 | 34 | 1021.2 |
| 20260503173024 | 22 | 160 | 0.0 | 12.9 | 0.00 | 0.00 | 0.00 | 36 | 1021.2 |
| 20260503171516 | 22 | 133 | 3.2 | 17.7 | 0.00 | 0.00 | 0.00 | 35 | 1021.5 |
| 20260503150110 | 21 | 24 | 3.2 | 11.3 | 0.00 | 0.00 | 0.00 | 49 | 1022.4 |
| 20260503081517 | 13 | 51 | 1.6 | 8.0 | 0.00 | 2.16 | 0.00 | 72 | 1019.7 |
| 20260503071602 | 14 | 42 | 3.2 | 8.0 | 0.00 | 2.64 | 0.00 | 70 | 1019.4 |
| 20260503054546 | 15 | 25 | 3.2 | 8.0 | 0.00 | 3.48 | 0.00 | 65 | 1019.2 |
| 20260503053044 | 15 | 35 | 1.6 | 4.8 | 0.00 | 3.48 | 0.00 | 66 | 1019.1 |